Weather History for Cairns, QU

Change the Weather History Date:

Monday, March 18, 2013

  Actual Average Record
Temperature  
Mean Temperature 78 °F -  
Max Temperature 89 °F 85 °F 89 °F (2013)
Min Temperature 66 °F 72 °F 66 °F (2013)
Cooling Degree Days 12    
Growing Degree Days 28 (Base 50)    
Moisture  
Dew Point 67 °F    
Average Humidity 69    
Maximum Humidity 94    
Minimum Humidity 32    
Precipitation  
Precipitation 0.00 in 0.41 in - ()
Sea Level Pressure  
Sea Level Pressure 29.80 in    
Wind  
Wind Speed 4 mph ()    
Max Wind Speed 10 mph    
Max Gust Speed -    
Visibility 10.7 miles    
Events      
Averages and records for this station are not official NWS values.
T = Trace of Precipitation, MM = Missing Value Source: Averaged Metar Reports

Daily Weather History Graph

Daily Weather History Graph

Search for Another Location

Airport:

Trip Planner

Search our weather history database for the weather conditions in past years. The results will help you decide how hot, cold, wet, or windy it might be!

Date:

Astronomy

Mar. 18, 2013 Rise Set
Actual Time 6:20 AM AEST 6:29 PM AEST
Civil Twilight 5:58 AM AEST 6:51 PM AEST
Nautical Twilight 5:33 AM AEST 7:16 PM AEST
Astronomical Twilight 5:08 AM AEST 7:41 PM AEST
Moon 11:32 AM AEST (3/18) 11:02 PM AEST (3/18)
Length of Visible Light 12h 52m
Length of Day
12h 09m
Waxing Crescent, 35% of the Moon is Illuminated
Mar 18
Waxing Crescent
Mar 20
First Quarter
Mar 27
Full
Apr 3
Last Quarter
Apr 10
New

Hourly Weather History & Observations

Time (AEST) Temp. Heat Index Dew Point Humidity Pressure Visibility Wind Dir Wind Speed Gust Speed Precip Events Conditions
12:00 AM 74 °F - 71 °F 87% 29.83 in - West 5.8 mph - -  
12:00 AM 73.4 °F - 71.6 °F 94% 29.83 in - West 5.8 mph - N/A   Clear
12:30 AM 71.6 °F - 69.8 °F 94% 29.80 in - Calm Calm - N/A   Clear
1:00 AM 72 °F - 70 °F 90% 29.82 in - Calm Calm - -  
1:00 AM 71.6 °F - 69.8 °F 94% 29.80 in - Calm Calm - N/A   Clear
1:30 AM 71.6 °F - 68.0 °F 88% 29.80 in - West 4.6 mph - N/A   Clear
2:00 AM 69.8 °F - 68.0 °F 94% 29.77 in - Calm Calm - N/A   Clear
2:30 AM 69.8 °F - 68.0 °F 94% 29.77 in - Calm Calm - N/A   Clear
3:00 AM 69 °F - 67 °F 92% 29.78 in - WNW 2.3 mph - -  
3:00 AM 69.8 °F - 68.0 °F 94% 29.77 in - WNW 2.3 mph - N/A   Clear
3:30 AM 69.8 °F - 66.2 °F 88% 29.77 in - Calm Calm - N/A   Clear
4:00 AM 69 °F - 67 °F 89% 29.78 in - Calm Calm - -  
4:00 AM 68.0 °F - 66.2 °F 94% 29.77 in - Calm Calm - N/A   Clear
4:30 AM 68.0 °F - 66.2 °F 94% 29.77 in - Calm Calm - N/A   Clear
5:00 AM 68.0 °F - 66.2 °F 94% 29.77 in - Calm Calm - N/A   Clear
5:30 AM 68.0 °F - 66.2 °F 94% 29.77 in - Calm Calm - N/A   Clear
6:00 AM 67 °F - 65 °F 90% 29.79 in 19 mi West 1.2 mph - -   Partly Cloudy
6:00 AM 68.0 °F - 64.4 °F 88% 29.77 in - West 1.2 mph - N/A   Clear
6:30 AM 68.0 °F - 64.4 °F 88% 29.80 in - SSE 1.2 mph - N/A   Clear
7:00 AM 69 °F - 64 °F 81% 29.82 in - SSE 2.3 mph - -  
7:00 AM 69.8 °F - 64.4 °F 83% 29.80 in - SSE 2.3 mph - N/A   Clear
7:30 AM 75.2 °F - 66.2 °F 73% 29.80 in - Calm Calm - N/A   Clear
8:00 AM 78.8 °F - 64.4 °F 61% 29.83 in - West 1.2 mph - N/A   Clear
8:30 AM 80.6 °F 81.1 °F 59.0 °F 48% 29.83 in - SE 5.8 mph - N/A   Clear
9:00 AM 82 °F - 61 °F 38% 29.84 in 19 mi ESE 4.6 mph - -   Partly Cloudy
9:00 AM 82.4 °F 82.9 °F 60.8 °F 48% 29.83 in - ESE 4.6 mph - N/A   Clear
9:30 AM 84.2 °F 84.4 °F 60.8 °F 45% 29.83 in - ESE 5.8 mph - N/A   Clear
10:00 AM 85 °F - 60 °F 32% 29.84 in - SE 5.8 mph - -  
10:00 AM 86.0 °F 86.1 °F 60.8 °F 43% 29.83 in - SE 5.8 mph - N/A   Clear
10:30 AM 87.8 °F 87.6 °F 60.8 °F 40% 29.83 in - ESE 5.8 mph - N/A   Clear
11:00 AM 87.8 °F 87.6 °F 60.8 °F 40% 29.83 in - ESE 4.6 mph - N/A   Clear
11:30 AM 89.6 °F 90.1 °F 62.6 °F 40% 29.80 in 6.2 mi East 4.6 mph - N/A   Partly Cloudy
12:00 PM 87 °F - 63 °F 34% 29.81 in 19 mi North 9.2 mph - -   Partly Cloudy
12:00 PM 87.8 °F 88.5 °F 62.6 °F 43% 29.80 in 6.2 mi North 9.2 mph - N/A   Partly Cloudy
12:30 PM 87.8 °F 91.4 °F 68.0 °F 52% 29.80 in 6.2 mi NNE 9.2 mph - N/A   Partly Cloudy
1:00 PM 86 °F - 69 °F 49% 29.80 in - NE 9.2 mph - -  
1:00 PM 86.0 °F 90.4 °F 69.8 °F 58% 29.77 in 6.2 mi NE 9.2 mph - N/A   Partly Cloudy
1:30 PM 86.0 °F 89.4 °F 68.0 °F 55% 29.77 in 6.2 mi NE 8.1 mph - N/A   Partly Cloudy
2:00 PM 86.0 °F 89.4 °F 68.0 °F 55% 29.77 in 6.2 mi NNE 8.1 mph - N/A   Partly Cloudy
2:30 PM 86.0 °F 89.4 °F 68.0 °F 55% 29.74 in 6.2 mi NNE 8.1 mph - N/A   Partly Cloudy
3:00 PM 87 °F - 67 °F 42% 29.76 in 19 mi NE 9.2 mph - -   Partly Cloudy
3:00 PM 86.0 °F 89.4 °F 68.0 °F 55% 29.74 in 6.2 mi NE 9.2 mph - N/A   Partly Cloudy
3:30 PM 87.8 °F 91.4 °F 68.0 °F 52% 29.74 in 6.2 mi North 8.1 mph - N/A   Partly Cloudy
4:00 PM 87 °F - 66 °F 41% 29.77 in - NNE 10.4 mph - -  
4:00 PM 86.0 °F 88.2 °F 66.2 °F 51% 29.77 in 6.2 mi NNE 10.4 mph - N/A   Partly Cloudy
4:30 PM 86.0 °F 90.4 °F 69.8 °F 58% 29.77 in 6.2 mi NE 9.2 mph - N/A   Partly Cloudy
5:00 PM 86.0 °F 90.4 °F 69.8 °F 58% 29.77 in - North 5.8 mph - N/A   Clear
5:30 PM 84.2 °F 88.4 °F 69.8 °F 62% 29.77 in - North 8.1 mph - N/A   Clear
6:00 PM 83 °F - 70 °F 56% 29.78 in 19 mi North 5.8 mph - -   Partly Cloudy
6:00 PM 82.4 °F 86.3 °F 69.8 °F 66% 29.77 in - North 5.8 mph - N/A   Clear
6:30 PM 80.6 °F 83.9 °F 69.8 °F 70% 29.80 in - NW 4.6 mph - N/A   Clear
7:00 PM 81 °F - 69 °F 60% 29.81 in - West 6.9 mph - -  
7:00 PM 80.6 °F 83.9 °F 69.8 °F 70% 29.80 in - West 6.9 mph - N/A   Clear
7:30 PM 80.6 °F 83.2 °F 68.0 °F 65% 29.83 in - WNW 6.9 mph - N/A   Clear
8:00 PM 80.6 °F 83.9 °F 69.8 °F 70% 29.83 in - WNW 5.8 mph - N/A   Clear
8:30 PM 78.8 °F - 69.8 °F 74% 29.83 in - WNW 5.8 mph - N/A   Clear
9:00 PM 79 °F - 71 °F 69% 29.86 in 19 mi West 5.8 mph - -   Partly Cloudy
9:00 PM 78.8 °F - 69.8 °F 74% 29.86 in - West 5.8 mph - N/A   Clear
9:30 PM 77.0 °F - 71.6 °F 83% 29.86 in - NW 3.5 mph - N/A   Clear
10:00 PM 77 °F - 71 °F 77% 29.87 in - West 3.5 mph - -  
10:00 PM 77.0 °F - 71.6 °F 83% 29.86 in - West 3.5 mph - N/A   Clear
10:30 PM 77.0 °F - 71.6 °F 83% 29.86 in - Calm Calm - N/A   Clear
11:00 PM 77.0 °F - 71.6 °F 83% 29.86 in - Calm Calm - N/A   Clear
11:30 PM 75.2 °F - 71.6 °F 89% 29.86 in - Calm Calm - N/A   Clear